Flag for Mozambique Weather past 2 weeks in Beira, Mozambique

Now
81 °F

Scattered clouds.


Feels Like: 83 °F
Forecast: 65 / 79 °F
Wind: 7 mph from Southeast

Location: Beira Airport

Current Time: May 24, 2015 at 11:35:19 AM

Latest Report: May 24, 2015 at 11:00 AM


Visibility: N/A

Pressure: 30.09 "Hg

Humidity: 66%

Dew point: 68 °F

Location of BeiraLocation

Historic Weather in Beira — Graph

°F

Beira temperature yesterday

Maximum temperature yesterday: 77 °F (at 2:00 PM)
Minimum temperature yesterday: 72 °F (at 4:00 PM)
Average temperature yesterday: 72 °F

Past Weeks' High & Low Weather Summary

 TemperatureHumidityPressure
High90 °F (May 14, 1:00 PM)100% (May 14, 5:00 AM)30.21 "Hg (May 14, 5:00 AM)
Low66 °F (May 14, 5:00 AM)49% (May 15, 12:00 PM)29.89 "Hg (May 14, 3:00 PM)
Average77 °F79%30.07 "Hg
* Reported May 9 9:00 AM — May 24 9:00 AM, Beira, Weather by CustomWeather, © 2015

Note: Actual official high and low records may vary slightly from our data, if they occured in-between our weather recording intervals... More about our weather records

Advertising

Beira weather history for previous 24 hours

 ConditionsComfort  
Time TempWeatherWind HumidityBarometerVisibility
9:00 AM
Sun, May 24
75 °FPassing clouds.7 mph78%30.12 "HgN/A
8:00 AM73 °FPassing clouds.8 mph83%30.12 "HgN/A
7:00 AM70 °FFog.6 mph94%30.09 "Hg3 mi
6:00 AM68 °FPassing clouds.6 mph100%30.09 "Hg6 mi
1:00 AM70 °FPassing clouds.9 mph94%30.12 "HgN/A
12:00 AM70 °FPassing clouds.9 mph94%30.12 "HgN/A
11:00 PM
Sat, May 23
72 °FPassing clouds.5 mph94%30.12 "HgN/A
10:00 PM72 °FPassing clouds.6 mph94%30.12 "HgN/A
9:00 PM72 °FPartly cloudy.6 mph83%30.12 "HgN/A
8:00 PM72 °FPartly cloudy.3 mph83%30.12 "HgN/A
7:00 PM72 °FPartly cloudy.5 mph83%30.09 "HgN/A
6:00 PM72 °FPartly cloudy.6 mph83%30.09 "HgN/A
5:00 PM72 °FBroken clouds.2 mph88%30.09 "HgN/A
4:00 PM72 °FBroken clouds.5 mph88%30.09 "HgN/A
3:00 PM73 °FBroken clouds.6 mph94%30.09 "HgN/A
2:00 PM77 °FDrizzle. Broken clouds.8 mph79%30.12 "Hg4 mi
Weather by CustomWeather, © 2015

See weather overviewHow to use our weather pages